CW6666 Weather Reports


Display with metric or nautical units.
time (UTC)temp
F
wind
direction
speed
MPH
gust
MPH
rain 1hr
in
rain 24hr
in
rain mn
in
humidity
%
barometer
mb
20141101110340 79 121 0.0 0.0 0.00 0.01 0.01 92 1009.0
20141101105405 79 121 0.0 0.0 0.00 0.04 0.01 92 1009.0
20141101104852 79 121 0.0 0.0 0.00 0.04 0.01 92 1009.0
20141101104423 79 121 0.0 0.0 0.00 0.04 0.01 92 1008.9
20141101103910 79 121 0.0 0.0 0.00 0.04 0.01 92 1008.9
20141101103353 79 121 0.0 0.0 0.00 0.04 0.01 91 1008.9
20141101102846 79 121 0.0 0.0 0.00 0.04 0.01 91 1008.9
20141101101420 79 121 0.0 0.0 0.00 0.04 0.01 91 1008.7
20141101100859 79 121 0.0 0.0 0.00 0.04 0.01 91 1008.7
20141101100427 79 121 0.0 0.0 0.00 0.04 0.01 91 1008.7
20141101095851 79 121 0.0 0.0 0.00 0.04 0.01 91 1008.4
20141101095428 79 121 0.0 0.0 0.00 0.11 0.01 91 1008.4
20141101094404 79 121 0.0 0.0 0.00 0.11 0.01 91 1008.0
20141101093843 79 121 0.0 0.0 0.00 0.11 0.01 91 1008.0
20141101092918 79 121 0.0 0.0 0.00 0.11 0.01 91 1007.8
20141101092336 79 121 0.0 0.0 0.00 0.11 0.01 90 1007.8
20141101091927 79 121 0.0 0.0 0.00 0.11 0.01 90 1007.8
20141101091401 79 121 0.0 0.0 0.00 0.11 0.01 90 1007.4
20141101090834 79 121 0.0 0.0 0.00 0.11 0.01 90 1007.4
20141101090403 79 121 0.0 0.0 0.00 0.11 0.01 90 1007.4
20141101085837 80 121 0.0 0.0 0.00 0.11 0.01 90 1007.2
20141101084908 80 121 0.0 0.0 0.00 0.17 0.01 89 1007.2
20141101084336 80 121 0.0 0.0 0.00 0.17 0.01 89 1007.0
20141101083832 80 121 0.0 0.0 0.00 0.17 0.01 89 1007.0
20141101082913 80 121 0.0 0.0 0.00 0.17 0.01 88 1006.9
20141101082335 80 121 0.0 0.0 0.00 0.17 0.01 88 1006.9
20141101081920 80 121 0.0 0.0 0.00 0.17 0.01 88 1006.9
20141101081353 81 121 0.0 0.0 0.00 0.17 0.01 88 1006.8
20141101080901 81 121 0.0 1.0 0.00 0.17 0.01 88 1006.8
20141101075917 81 138 0.0 3.0 0.00 0.17 0.01 87 1006.4
20141101075402 81 121 1.0 3.0 0.00 0.17 0.01 87 1006.4
20141101074843 82 129 0.0 7.0 0.00 0.17 0.01 86 1006.4
20141101073913 83 101 2.0 4.0 0.00 0.17 0.01 84 1006.4
20141101073356 83 43 0.0 0.0 0.00 0.17 0.01 84 1006.4
20141101072834 83 43 0.0 0.0 0.00 0.17 0.01 83 1006.0
20141101072417 84 43 0.0 0.0 0.00 0.17 0.01 83 1006.0
20141101071405 84 43 0.0 0.0 0.00 0.17 0.01 83 1005.9
20141101070848 84 43 0.0 0.0 0.00 0.17 0.01 83 1005.9
20141101065857 85 43 0.0 0.0 0.00 0.17 0.01 82 1005.8
20141101065333 85 43 0.0 0.0 0.00 0.17 0.01 82 1005.8
20141101064931 85 43 0.0 0.0 0.00 0.17 0.01 82 1005.8
20141101064411 85 43 0.0 0.0 0.00 0.17 0.01 81 1005.5
20141101063847 86 43 0.0 0.0 0.00 0.17 0.01 80 1005.5
20141101063425 86 43 0.0 0.0 0.00 0.17 0.01 80 1005.5
20141101062856 86 43 0.0 0.0 0.00 0.17 0.01 80 1005.4
20141101061359 86 45 0.0 0.0 0.00 0.17 0.01 80 1005.3
20141101060842 86 46 0.0 3.0 0.00 0.17 0.01 80 1005.3
20141101060426 86 46 0.0 4.0 0.00 0.17 0.01 80 1005.3
20141101055330 87 47 0.0 5.0 0.00 0.17 0.01 79 1005.0
20141101054920 87 46 0.0 1.0 0.00 0.17 0.01 79 1005.0
20141101054348 87 335 0.0 0.0 0.00 0.17 0.01 80 1004.9
20141101053846 87 335 0.0 0.0 0.00 0.17 0.01 79 1004.9
20141101053429 87 310 0.0 2.0 0.00 0.17 0.01 78 1004.9
20141101052402 87 14 3.0 4.0 0.00 0.17 0.01 78 1004.9
20141101051843 87 25 0.0 2.0 0.00 0.17 0.01 78 1004.9
20141101051421 87 25 0.0 3.0 0.00 0.17 0.01 79 1004.9
20141101050900 88 360 1.0 3.0 0.00 0.17 0.01 79 1004.9
20141101050428 87 61 0.0 1.0 0.00 0.17 0.01 79 1004.9
20141101045852 87 298 0.0 0.0 0.00 0.17 0.01 79 1004.9
20141101045426 87 298 0.0 0.0 0.00 0.17 0.01 78 1004.9
20141101044912 87 296 0.0 0.0 0.00 0.17 0.01 78 1004.9
20141101044352 87 299 0.0 0.0 0.00 0.17 0.01 76 1005.0
20141101043833 87 299 0.0 0.0 0.00 0.17 0.01 77 1005.0
20141101043403 87 299 0.0 2.0 0.00 0.17 0.01 77 1005.0
20141101042910 87 299 0.0 2.0 0.00 0.17 0.01 76 1005.0
20141101042404 87 299 0.0 1.0 0.00 0.17 0.01 77 1005.0
20141101041837 87 292 0.0 0.0 0.00 0.17 0.01 77 1005.0
20141101041402 87 304 0.0 0.0 0.00 0.17 0.01 76 1005.2
20141101040836 87 305 0.0 0.0 0.00 0.17 0.01 74 1005.2
20141101040414 88 305 0.0 0.0 0.00 0.17 0.01 74 1005.2
20141101035835 88 206 0.0 0.0 0.00 0.17 0.01 72 1005.4
20141101034859 88 295 0.0 2.0 0.00 0.17 0.01 76 1005.4
20141101034426 87 297 1.0 3.0 0.00 0.17 0.01 76 1005.4
20141101033903 87 294 1.0 3.0 0.00 0.17 0.01 75 1005.4
20141101033425 87 300 1.0 3.0 0.00 0.17 0.01 75 1005.4
20141101032917 87 300 0.0 4.0 0.00 0.17 0.01 74 1005.6
20141101032343 88 298 2.0 4.0 0.00 0.17 0.01 76 1005.6
20141101031925 88 284 0.0 7.0 0.00 0.17 0.01 76 1005.6
20141101031344 88 300 1.0 7.0 0.00 0.17 0.01 74 1005.9
20141101030832 88 298 0.0 4.0 0.00 0.17 0.01 77 1005.9
20141101030356 87 298 0.0 5.0 0.00 0.17 0.01 77 1005.9
20141101025839 88 298 0.0 5.0 0.00 0.17 0.01 74 1005.9
20141101025417 88 300 1.0 3.0 0.00 0.17 0.01 75 1005.9
20141101024856 88 306 0.0 1.0 0.00 0.17 0.01 76 1005.9
20141101024428 88 251 0.0 1.0 0.00 0.17 0.01 74 1006.0
20141101023856 88 239 0.0 3.0 0.00 0.17 0.01 75 1006.0
20141101023414 88 260 2.0 3.0 0.00 0.17 0.01 74 1006.0
20141101022853 88 213 0.0 6.0 0.00 0.17 0.01 74 1006.3
20141101021907 88 269 0.0 1.0 0.00 0.17 0.01 74 1006.3
20141101021429 88 300 0.0 1.0 0.00 0.17 0.01 74 1006.4
20141101020912 88 238 0.0 3.0 0.00 0.17 0.01 72 1006.4
20141101015903 89 315 0.0 2.0 0.00 0.17 0.01 76 1006.4
20141101015426 89 215 1.0 6.0 0.00 0.17 0.01 73 1006.4
20141101014851 88 267 0.0 6.0 0.00 0.17 0.01 74 1006.4
20141101014431 89 303 4.0 4.0 0.00 0.17 0.01 73 1006.6
20141101013912 89 250 0.0 1.0 0.00 0.17 0.01 76 1006.6
20141101013332 88 325 0.0 4.0 0.00 0.17 0.01 75 1006.6
20141101011856 88 269 1.0 6.0 0.00 0.17 0.01 77 1006.7
20141101011438 87 310 2.0 6.0 0.00 0.17 0.01 79 1006.9
20141101010911 87 313 2.0 6.0 0.00 0.17 0.01 77 1006.9
20141101010346 87 310 0.0 3.0 0.00 0.17 0.01 79 1006.9
20141101005406 86 205 0.0 4.0 0.00 0.18 0.01 81 1007.0
20141101004853 86 310 2.0 5.0 0.00 0.18 0.01 81 1007.0
20141101004415 86 268 2.0 5.0 0.00 0.18 0.01 82 1007.4
20141101003837 85 283 1.0 3.0 0.00 0.18 0.01 83 1007.4
20141101002407 86 279 3.0 4.0 0.00 0.18 0.01 83 1007.6
20141101001833 85 267 1.0 5.0 0.00 0.18 0.01 84 1007.6
20141101001414 85 243 3.0 5.0 0.00 0.18 0.01 84 1007.7
20141101000905 85 301 3.0 5.0 0.00 0.18 0.01 83 1007.7
20141101000426 85 254 1.0 5.0 0.00 0.18 0.01 86 1007.7
20141031235906 85 302 2.0 5.0 0.00 0.18 0.01 85 1007.8
20141031235429 84 237 0.0 2.0 0.00 0.18 0.01 86 1007.8
20141031234853 84 302 0.0 1.0 0.01 0.18 0.01 87 1007.8
20141031234333 84 281 0.0 2.0 0.01 0.18 0.01 86 1008.0
20141031233922 84 283 1.0 2.0 0.01 0.18 0.01 87 1008.0
20141031233401 84 288 0.0 3.0 0.01 0.18 0.01 88 1008.0
20141031232847 84 284 0.0 3.0 0.01 0.18 0.01 88 1008.0
20141031232420 84 305 0.0 0.0 0.01 0.18 0.01 88 1008.0
20141031231852 83 221 0.0 0.0 0.01 0.18 0.01 89 1008.0
20141031231352 83 233 0.0 4.0 0.01 0.18 0.01 89 1008.0
20141031230837 82 304 0.0 4.0 0.01 0.18 0.01 89 1008.0
20141031225849 82 213 0.0 0.0 0.01 0.18 0.01 90 1007.9
20141031225412 82 191 0.0 0.0 0.01 0.18 0.01 90 1007.9
20141031224845 82 229 0.0 0.0 0.00 0.17 0.00 91 1007.9
20141031223901 81 16 0.0 0.0 0.00 0.17 0.00 92 1007.8
20141031223429 81 16 0.0 0.0 0.00 0.17 0.00 92 1007.8
20141031222912 80 16 0.0 0.0 0.00 0.17 0.00 92 1007.6
20141031222344 80 16 0.0 0.0 0.00 0.17 0.00 92 1007.6
20141031221929 79 16 0.0 0.0 0.00 0.17 0.00 92 1007.6
20141031221357 79 16 0.0 0.0 0.00 0.17 0.00 92 1007.6
20141031220855 79 16 0.0 0.0 0.00 0.17 0.00 93 1007.6
20141031220423 79 16 0.0 0.0 0.00 0.17 0.00 93 1007.6
20141031215850 79 16 0.0 0.0 0.00 0.17 0.00 93 1007.9
20141031214912 78 302 0.0 0.0 0.00 0.17 0.00 93 1007.9
20141031214350 78 302 0.0 0.0 0.00 0.17 0.00 93 1007.7
20141031213835 78 302 0.0 0.0 0.00 0.17 0.00 93 1007.7
20141031213357 78 302 0.0 0.0 0.00 0.17 0.00 93 1007.7
20141031212838 78 302 0.0 0.0 0.00 0.17 0.00 93 1007.5
20141031212413 78 302 0.0 0.0 0.00 0.17 0.00 93 1007.5
20141031211845 78 302 0.0 0.0 0.00 0.17 0.00 94 1007.5
20141031211410 77 302 0.0 0.0 0.00 0.17 0.00 94 1007.4
20141031210835 77 302 0.0 0.0 0.00 0.17 0.00 93 1007.4
20141031210404 77 302 0.0 0.0 0.00 0.17 0.00 93 1007.4
20141031205841 77 302 0.0 0.0 0.00 0.17 0.00 94 1007.3
20141031205410 77 302 0.0 0.0 0.00 0.17 0.00 93 1007.3
20141031204853 76 302 0.0 0.0 0.00 0.17 0.00 93 1007.3
20141031202918 76 302 0.0 0.0 0.00 0.17 0.00 93 1007.0
20141031202346 77 302 0.0 0.0 0.00 0.17 0.00 93 1007.0
20141031201833 77 302 0.0 0.0 0.00 0.17 0.00 93 1007.0
20141031201403 77 302 0.0 0.0 0.00 0.17 0.00 93 1006.7
20141031200838 76 302 0.0 0.0 0.00 0.17 0.00 94 1006.7
20141031195904 76 302 0.0 0.0 0.00 0.17 0.00 93 1006.3
20141031195344 76 302 0.0 0.0 0.00 0.17 0.00 93 1006.3
20141031194411 76 302 0.0 0.0 0.00 0.17 0.00 93 1006.0
20141031193841 76 287 0.0 0.0 0.00 0.17 0.00 93 1006.0
20141031193418 76 232 0.0 0.0 0.00 0.17 0.00 93 1006.0
20141031192837 76 225 0.0 0.0 0.00 0.17 0.00 93 1005.9
20141031191920 76 226 0.0 0.0 0.00 0.17 0.00 93 1005.9
20141031191356 76 226 0.0 0.0 0.00 0.17 0.00 93 1005.9
20141031190840 76 226 0.0 0.0 0.00 0.17 0.00 93 1005.9
20141031190405 76 226 0.0 0.0 0.00 0.17 0.00 93 1005.9
20141031185833 76 226 0.0 0.0 0.00 0.17 0.00 93 1005.7
20141031185401 76 226 0.0 0.0 0.00 0.17 0.00 93 1005.7
20141031184836 76 226 0.0 0.0 0.00 0.17 0.00 93 1005.7
20141031184410 76 226 0.0 0.0 0.00 0.17 0.00 93 1005.6
20141031183846 76 226 0.0 0.0 0.00 0.17 0.00 93 1005.6
20141031182407 76 226 0.0 0.0 0.00 0.17 0.00 93 1005.7
20141031181840 76 226 0.0 0.0 0.00 0.17 0.00 93 1005.7
20141031181413 76 236 0.0 0.0 0.00 0.17 0.00 93 1005.6
20141031180850 76 246 0.0 0.0 0.00 0.17 0.00 93 1005.6
20141031180429 76 216 0.0 0.0 0.00 0.17 0.00 93 1005.6
20141031175850 76 216 0.0 0.0 0.00 0.17 0.00 93 1005.7
20141031175429 76 216 0.0 0.0 0.00 0.17 0.00 93 1005.7
20141031174857 76 216 0.0 0.0 0.00 0.17 0.00 93 1005.7
20141031174425 76 216 0.0 0.0 0.00 0.17 0.00 93 1005.9
20141031173908 76 216 0.0 0.0 0.00 0.17 0.00 93 1005.9
20141031173341 76 216 0.0 0.0 0.00 0.17 0.00 93 1005.9
20141031172402 76 216 0.0 0.0 0.00 0.17 0.00 93 1005.8
20141031171855 76 215 0.0 1.0 0.00 0.17 0.00 93 1005.8
20141031171427 76 215 0.0 1.0 0.00 0.17 0.00 93 1005.8
20141031170851 76 221 0.0 1.0 0.00 0.17 0.00 93 1005.8
20141031170426 76 219 0.0 0.0 0.00 0.17 0.00 93 1005.8
20141031165851 76 219 0.0 1.0 0.00 0.17 0.00 93 1005.9
20141031165418 76 219 0.0 1.0 0.00 0.18 0.00 93 1005.9
20141031164849 76 219 0.0 2.0 0.00 0.18 0.00 93 1005.9
20141031164410 76 219 0.0 2.0 0.00 0.18 0.00 93 1005.9
20141031163836 76 233 0.0 0.0 0.00 0.18 0.00 93 1005.9
20141031163401 76 233 0.0 0.0 0.00 0.18 0.00 93 1005.9
20141031162832 76 233 0.0 0.0 0.00 0.18 0.00 93 1005.9
20141031161920 76 233 0.0 0.0 0.00 0.18 0.00 93 1005.9
20141031161348 76 233 0.0 0.0 0.00 0.18 0.00 93 1005.9
20141031160850 76 233 0.0 0.0 0.00 0.18 0.00 93 1005.9
20141031155848 76 233 0.0 0.0 0.00 0.18 0.00 93 1005.9
20141031155339 76 226 0.0 0.0 0.00 0.18 0.00 93 1005.9
20141031154845 76 225 0.0 0.0 0.00 0.18 0.00 93 1005.9
20141031154333 76 235 0.0 6.0 0.00 0.18 0.00 93 1005.9
20141031153838 76 224 1.0 6.0 0.00 0.18 0.00 93 1005.9
20141031153348 76 228 3.0 5.0 0.00 0.18 0.00 93 1005.9
20141031152833 76 237 0.0 0.0 0.00 0.18 0.00 93 1006.1
20141031152343 76 254 0.0 0.0 0.00 0.18 0.00 94 1006.1
20141031151849 76 294 0.0 0.0 0.00 0.18 0.00 94 1006.1
20141031151341 76 296 0.0 0.0 0.00 0.18 0.00 93 1006.3
20141031150846 76 310 0.0 0.0 0.00 0.18 0.00 93 1006.3
20141031150337 76 310 0.0 0.0 0.00 0.18 0.00 93 1006.3
20141031145840 76 310 0.0 0.0 0.00 0.18 0.00 93 1006.4
20141031145329 76 311 0.0 0.0 0.00 0.18 0.00 93 1006.4
20141031144838 76 310 0.0 0.0 0.00 0.18 0.00 93 1006.4
20141031144346 76 310 0.0 0.0 0.00 0.18 0.00 93 1006.5
20141031143850 76 310 0.0 0.0 0.00 0.18 0.00 93 1006.5
20141031143338 76 310 0.0 0.0 0.00 0.18 0.00 93 1006.5
20141031142843 77 310 0.0 0.0 0.00 0.18 0.00 93 1006.6
20141031142330 77 310 0.0 0.0 0.00 0.18 0.00 93 1006.6
20141031141839 77 310 0.0 0.0 0.00 0.18 0.00 93 1006.6
20141031141346 76 310 0.0 0.0 0.00 0.18 0.00 93 1006.5
20141031140831 76 310 0.0 0.0 0.00 0.18 0.00 93 1006.5
20141031140341 76 310 0.0 0.0 0.00 0.18 0.00 93 1006.5
20141031135847 76 310 0.0 0.0 0.00 0.18 0.18 93 1006.5
20141031135407 76 310 0.0 0.0 0.00 0.18 0.18 93 1006.5
20141031134846 76 310 0.0 0.0 0.00 0.18 0.18 93 1006.5
20141031134412 76 310 0.0 0.0 0.00 0.18 0.18 93 1006.7
20141031133855 76 310 0.0 0.0 0.00 0.18 0.18 93 1006.7
20141031132355 76 310 0.0 0.0 0.00 0.18 0.18 93 1006.9
20141031131830 76 310 0.0 0.0 0.00 0.18 0.18 93 1006.9
20141031131416 76 311 0.0 0.0 0.00 0.18 0.18 93 1006.9
20141031130910 76 310 0.0 0.0 0.00 0.18 0.18 93 1006.9
20141031130337 76 310 0.0 0.0 0.00 0.18 0.18 93 1006.9
20141031125407 76 310 0.0 0.0 0.00 0.18 0.18 93 1007.0
20141031124847 76 310 0.0 0.0 0.00 0.18 0.18 93 1007.0
20141031124414 76 311 0.0 0.0 0.00 0.18 0.18 93 1007.2
20141031123858 76 310 0.0 0.0 0.00 0.18 0.18 93 1007.2
20141031123339 76 310 0.0 0.0 0.00 0.18 0.18 93 1007.2
20141031122923 76 310 0.0 0.0 0.00 0.18 0.18 93 1007.1
20141031122407 76 310 0.0 0.0 0.00 0.18 0.18 93 1007.1
20141031121854 76 310 0.0 0.0 0.00 0.18 0.18 93 1007.1
20141031120412 76 310 0.0 0.0 0.00 0.18 0.18 93 1006.9
20141031115909 76 311 0.0 0.0 0.00 0.18 0.18 93 1006.9
20141031115349 77 310 0.0 0.0 0.00 0.18 0.18 93 1006.9
20141031114833 77 310 0.0 0.0 0.00 0.18 0.18 93 1006.9
20141031114405 77 64 0.0 0.0 0.00 0.18 0.18 93 1007.1
20141031113835 77 64 0.0 0.0 0.00 0.18 0.18 93 1007.1
20141031112406 77 64 0.0 0.0 0.00 0.18 0.18 93 1007.0
20141031111847 77 64 0.0 0.0 0.00 0.18 0.18 93 1007.0
20141031111426 77 65 0.0 0.0 0.00 0.18 0.18 93 1006.9